Temp
2 2 2 2 2 2 2 2 2 2 2 3 1 2 2 4 6 8 8 9 11 11 12 12 12 14 15 16 17 15 16 12 12 14 15 17 17 16 16 13 10 8 12 16
2 2 2 2 2 2 1 2 2 2 2 3 2 3 3 4 6 7 7 7 10 12 11 11 13 13 15 15 16 15 16 11 9 12 13 14 14 15 15 14 9 13 12 12
2 2 2 1 2 2 1 2 1 0 2 2 2 2 4 4 5 7 7 7 9 11 12 11 11 13 14 14 16 16 16 13 14 14 15 13 12 15 15 15 13 14 14 15
2 2 2 2 2 1 1 1 0 2 2 1 1 3 4 4 5 6 8 7 7 9 10 10 10 12 11 11 13 14 15 13 12 14 14 16 15 14 14 14 14 13 15 15
3 2 2 3 2 1 1 1 0 1 1 2 1 3 3 5 6 7 6 7 7 7 8 10 10 10 10 11 10 14 11 8 11 11 14 14 13 13 14 14 14 14 15 14
2 2 2 2 2 1 2 1 0 4 2 1 2 3 4 4 6 7 7 8 7 8 7 8 7 7 7 10 10 11 12 9 9 12 12 12 11 13 13 14 15 15 13 15
2 2 2 1 2 2 1 1 2 2 2 1 2 4 4 4 5 5 7 8 7 8 10 8 7 6 6 7 7 8 9 11 8 9 10 10 12 12 15 14 15 15 15 14
3 2 2 2 1 1 1 0 3 4 1 2 3 4 4 4 5 5 7 8 9 9 8 5 7 6 6 5 6 7 7 10 8 9 10 10 12 10 11 13 13 15 15 12
2 3 2 2 1 1 0 1 3 5 3 2 4 3 4 4 4 4 4 6 7 8 4 5 7 7 7 6 6 6 6 8 9 6 10 11 11 10 11 12 12 11 13 11
2 2 3 3 2 2 1 3 5 6 1 2 5 3 3 5 4 4 4 5 4 6 5 5 7 7 6 6 7 6 6 6 8 7 8 8 8 10 11 10 11 10 13 11
3 2 3 3 2 1 1 3 4 6 2 1 3 5 5 5 5 4 3 4 3 3 5 6 5 6 5 6 6 6 7 7 7 6 7 10 8 9 10 9 8 9 12 11
2 2 2 2 1 1 2 3 4 4 5 1 2 2 2 3 3 4 3 4 3 4 4 4 4 4 4 5 6 5 7 6 6 7 7 8 8 8 9 9 10 10 11 11
2 2 2 2 2 2 2 2 3 5 2 1 1 2 3 2 3 1 3 2 5 4 6 3 3 5 3 5 4 5 5 5 5 6 8 6 7 7 9 10 10 12 12 10
2 2 2 1 1 1 3 3 3 4 3 -0 -0 0 1 2 3 1 1 3 4 4 5 2 3 4 3 4 5 5 5 5 5 5 5 6 7 8 10 10 11 10 7 8
2 2 2 2 1 2 3 3 3 3 4 -2 -0 0 1 0 1 1 1 1 2 2 2 2 3 2 3 2 3 4 4 4 6 7 6 7 8 11 9 10 10 9 8 4
1 1 2 2 2 2 2 1 1 2 2 2 -3 -1 -0 0 1 1 1 1 2 2 1 1 1 2 3 4 4 4 5 6 8 7 9 7 8 8 7 7 7 6 6 7
1 1 1 1 1 1 1 1 1 1 1 2 -1 -2 -1 -0 0 -0 -0 0 -0 1 -0 0 1 1 2 2 4 5 5 6 7 8 7 4 6 6 5 6 4 5 6 5
1 1 1 0 -0 -0 -0 -0 1 1 3 1 -1 -2 -0 -0 -1 -1 -1 -1 -1 -1 -1 -1 0 1 1 3 3 5 6 6 6 7 8 9 6 5 4 4 4 4 4 4
1 1 1 0 0 -0 -1 -0 0 1 1 -1 -3 -1 1 -0 -1 -1 -1 -1 -1 -1 -0 -0 1 0 2 3 3 4 5 5 6 6 7 6 5 4 3 4 4 5 5 5
-0 -0 -0 -2 -1 -1 -1 -0 -0 -0 -1 -1 -2 -1 0 -0 -1 -1 -1 -1 -0 -0 -1 -1 0 1 2 3 4 5 6 6 6 4 2 3 2 2 3 4 6 6 5 4
-0 -2 -2 -2 -1 -1 -0 -2 -4 -2 -3 -2 -2 -1 -1 -1 -1 -1 -1 -1 -1 -1 0 0 0 -0 0 5 5 5 6 6 6 8 7 6 6 5 4 3 5 5 4 4
-0 -1 -2 -2 -1 -1 -2 -5 -2 -1 -1 -1 -1 -1 -1 -1 -0 -1 -1 -0 -1 0 -1 -3 -2 -2 2 4 5 5 5 6 5 7 6 5 5 5 5 5 4 4 4 4
-0 -1 -0 -1 -3 -4 -4 -5 -1 -2 -3 -1 -1 -1 -1 -1 -1 -2 -1 -1 -1 -1 -2 -0 -2 -1 3 4 4 4 5 5 6 5 5 5 4 4 5 4 4 4 4 3
1 -2 -3 -2 -4 -2 -1 -1 -3 -2 -1 -1 -1 -4 -3 -2 -1 -1 -1 -0 -0 -2 -4 -3 -2 1 3 3 4 4 4 5 6 5 5 4 3 3 4 5 4 3 3 2
0 -1 -3 -3 -2 -2 -2 -1 -1 -1 -2 -1 -2 -2 -2 -1 -1 -1 -1 -3 -3 -3 -4 -4 -2 2 3 3 4 5 4 5 5 4 4 3 3 4 4 3 3 3 2 2
0 -1 -2 -2 -1 -2 -1 -1 -2 -2 -2 -1 -1 -1 -1 -1 -1 -1 -1 -1 -3 -3 -4 -1 0 2 3 4 4 5 5 5 4 3 3 3 4 4 3 2 2 2 2 1
-1 -2 -2 -3 -2 -2 -2 -2 -2 -2 -1 -1 -1 -2 0 -2 -2 -0 -1 -3 -3 -3 -2 -0 1 3 3 4 4 4 4 3 3 3 3 3 3 2 2 1 0 -0 -0 -1
Height
1320 1323 1327 1333 1340 1350 1361 1362 1359 1365 1376 1379 1374 1383 1393 1383 1381 1386 1385 1379 1373 1374 1371 1374 1368 1363 1362 1363 1373 1389 1387 1411 1424 1413 1405 1403 1405 1407 1418 1436 1458 1458 1444 1396
1305 1308 1313 1320 1329 1338 1348 1346 1354 1357 1366 1355 1362 1373 1379 1375 1380 1375 1378 1376 1366 1364 1365 1369 1360 1362 1361 1362 1366 1371 1384 1406 1432 1424 1412 1404 1405 1412 1415 1422 1439 1425 1443 1412
1288 1290 1295 1302 1312 1324 1337 1341 1339 1345 1344 1346 1353 1363 1366 1370 1374 1366 1372 1368 1365 1359 1361 1360 1358 1358 1357 1358 1358 1364 1374 1387 1380 1377 1384 1399 1406 1400 1404 1412 1419 1414 1390 1401
1268 1269 1272 1279 1290 1304 1320 1320 1314 1317 1327 1330 1338 1348 1352 1351 1356 1363 1360 1363 1366 1360 1359 1358 1358 1354 1357 1355 1354 1362 1368 1375 1381 1380 1382 1380 1384 1391 1394 1395 1393 1402 1381 1386
1248 1249 1251 1256 1267 1281 1293 1295 1303 1311 1316 1328 1336 1342 1344 1341 1347 1350 1355 1358 1360 1359 1358 1351 1357 1354 1351 1350 1356 1356 1363 1380 1378 1384 1379 1381 1385 1382 1379 1382 1385 1381 1387 1375
1231 1229 1230 1235 1242 1255 1258 1279 1290 1297 1307 1320 1327 1327 1327 1332 1338 1335 1342 1347 1346 1352 1351 1354 1353 1356 1353 1346 1348 1353 1360 1372 1381 1376 1379 1385 1392 1364 1371 1372 1369 1371 1376 1362
1216 1216 1217 1219 1222 1228 1243 1255 1275 1283 1297 1308 1308 1316 1322 1328 1332 1338 1341 1336 1339 1339 1347 1352 1355 1354 1350 1349 1351 1349 1357 1362 1378 1383 1384 1386 1354 1349 1353 1359 1355 1358 1356 1362
1202 1203 1204 1209 1213 1222 1236 1247 1263 1272 1288 1294 1311 1313 1312 1324 1329 1328 1326 1328 1329 1342 1345 1352 1350 1353 1351 1353 1351 1354 1352 1361 1378 1377 1373 1362 1346 1353 1353 1354 1345 1342 1345 1357
1190 1192 1193 1196 1207 1223 1231 1245 1260 1264 1278 1290 1298 1302 1306 1313 1318 1324 1326 1324 1327 1332 1337 1345 1341 1339 1344 1350 1352 1353 1354 1358 1362 1379 1361 1356 1342 1341 1341 1347 1340 1334 1340 1348
1185 1185 1183 1181 1196 1215 1232 1242 1255 1264 1276 1283 1292 1293 1302 1306 1314 1322 1329 1326 1328 1315 1328 1334 1333 1335 1340 1341 1338 1349 1355 1357 1355 1363 1359 1352 1340 1337 1340 1357 1344 1327 1328 1336
1183 1185 1184 1184 1203 1216 1233 1244 1256 1262 1270 1282 1284 1290 1295 1303 1310 1316 1321 1325 1315 1310 1316 1324 1330 1330 1335 1334 1335 1337 1340 1350 1353 1363 1360 1347 1333 1337 1342 1336 1331 1331 1334 1334
1191 1192 1197 1204 1215 1225 1236 1249 1257 1263 1272 1280 1284 1288 1293 1297 1304 1310 1309 1304 1299 1302 1300 1317 1322 1327 1332 1331 1333 1335 1336 1336 1345 1348 1343 1335 1333 1331 1330 1331 1329 1331 1333 1337
1200 1204 1208 1213 1222 1231 1239 1249 1259 1265 1270 1281 1286 1289 1290 1296 1302 1304 1304 1300 1297 1293 1290 1303 1314 1319 1325 1328 1327 1328 1334 1335 1337 1340 1331 1331 1330 1329 1328 1329 1329 1331 1334 1337
1204 1206 1213 1221 1229 1237 1245 1251 1257 1263 1273 1282 1288 1286 1290 1292 1294 1295 1297 1294 1295 1289 1290 1298 1308 1311 1319 1319 1316 1321 1327 1333 1334 1334 1331 1330 1329 1327 1328 1328 1328 1331 1335 1338
1209 1213 1217 1225 1233 1241 1248 1254 1260 1267 1274 1281 1285 1285 1289 1290 1289 1287 1285 1291 1290 1287 1291 1297 1302 1307 1314 1318 1320 1321 1318 1321 1324 1319 1316 1317 1318 1320 1324 1324 1326 1329 1331 1340
1215 1216 1221 1230 1233 1243 1252 1258 1262 1266 1271 1277 1286 1287 1287 1287 1284 1282 1283 1284 1287 1287 1284 1294 1297 1299 1303 1311 1315 1304 1303 1307 1307 1307 1307 1312 1315 1319 1324 1327 1328 1330 1333 1335
1220 1222 1225 1231 1235 1240 1250 1253 1253 1263 1270 1271 1279 1283 1285 1283 1283 1284 1283 1283 1284 1285 1286 1290 1293 1299 1301 1305 1305 1295 1295 1302 1306 1304 1306 1315 1313 1315 1321 1326 1330 1333 1337 1343
1223 1226 1230 1235 1238 1243 1250 1253 1255 1263 1266 1273 1280 1282 1282 1281 1280 1284 1285 1284 1286 1287 1291 1292 1292 1298 1299 1297 1291 1292 1292 1297 1302 1303 1304 1306 1310 1313 1320 1326 1331 1337 1342 1347
1226 1230 1234 1239 1245 1249 1253 1253 1258 1262 1268 1272 1278 1280 1277 1279 1281 1283 1285 1287 1290 1291 1292 1293 1291 1295 1292 1282 1283 1286 1289 1292 1295 1302 1304 1306 1308 1314 1319 1326 1333 1338 1347 1352
1230 1232 1237 1244 1248 1250 1254 1260 1263 1266 1269 1272 1275 1275 1276 1281 1284 1287 1291 1292 1292 1293 1293 1292 1292 1289 1281 1279 1278 1285 1288 1291 1293 1299 1306 1307 1312 1316 1319 1326 1334 1342 1348 1354
1237 1239 1245 1250 1251 1254 1256 1261 1266 1269 1273 1272 1273 1275 1277 1282 1284 1284 1288 1291 1292 1294 1294 1293 1291 1289 1278 1278 1279 1282 1283 1287 1291 1295 1298 1303 1304 1310 1320 1329 1335 1340 1349 1355
1240 1241 1248 1252 1255 1258 1262 1270 1267 1267 1268 1270 1272 1275 1278 1281 1283 1287 1292 1293 1297 1291 1291 1295 1295 1279 1270 1271 1276 1279 1285 1289 1292 1297 1303 1306 1308 1311 1319 1327 1336 1344 1352 1356
1244 1247 1252 1254 1259 1265 1267 1274 1263 1266 1266 1268 1271 1275 1278 1282 1285 1288 1290 1293 1294 1293 1298 1290 1285 1273 1271 1272 1275 1279 1285 1289 1293 1300 1305 1307 1311 1315 1321 1331 1341 1347 1352 1358
1247 1250 1258 1257 1264 1259 1257 1257 1259 1259 1260 1264 1270 1274 1277 1280 1283 1286 1288 1289 1292 1299 1303 1288 1273 1269 1272 1275 1277 1279 1283 1289 1296 1302 1307 1310 1315 1322 1328 1335 1344 1349 1352 1359
1248 1249 1257 1257 1255 1255 1256 1256 1257 1259 1261 1264 1269 1272 1274 1277 1279 1280 1285 1296 1295 1289 1287 1275 1267 1269 1272 1275 1277 1283 1289 1295 1301 1306 1310 1315 1321 1327 1332 1340 1346 1351 1354 1360
1250 1252 1254 1254 1254 1255 1255 1256 1258 1260 1263 1265 1269 1273 1275 1276 1275 1279 1280 1281 1289 1276 1270 1267 1267 1270 1272 1277 1284 1291 1293 1297 1304 1310 1316 1322 1327 1331 1336 1342 1348 1352 1356 1359
1252 1255 1254 1255 1255 1257 1258 1259 1261 1263 1265 1267 1269 1274 1271 1275 1278 1274 1274 1277 1271 1270 1268 1267 1270 1274 1281 1285 1288 1291 1299 1304 1310 1317 1323 1327 1331 1335 1340 1345 1349 1354 1357 1361
Wind_Speed
40 40 41 40 40 37 37 38 12 22 37 14 9 15 6 13 18 29 15 8 17 6 13 20 16 23 24 20 27 33 27 5 4 14 3 14 27 26 21 7 4 4 6 21
43 44 44 44 44 40 43 30 28 22 40 14 13 15 18 10 17 16 14 8 11 21 5 6 23 13 15 12 25 26 19 6 2 5 6 3 16 13 16 12 2 17 7 5
45 47 49 48 49 48 48 25 7 12 42 29 18 21 21 22 27 15 20 5 7 4 12 5 10 13 5 5 23 23 20 9 26 22 12 9 8 19 20 19 15 13 28 16
47 49 54 55 57 55 55 32 6 14 9 16 23 23 12 16 18 21 14 12 13 6 15 1 7 9 4 3 5 17 19 24 15 18 1 18 11 13 21 29 26 17 20 27
41 46 50 56 61 64 65 20 10 14 5 25 23 26 22 23 19 16 27 19 24 13 5 9 3 3 5 7 2 19 7 4 6 9 16 11 10 17 21 24 24 27 23 23
36 34 37 47 59 70 37 42 27 28 12 19 21 24 28 24 16 24 24 28 23 20 14 1 2 2 4 1 8 12 14 6 4 16 6 3 13 29 23 21 24 21 25 18
34 33 34 38 49 76 34 47 39 14 10 15 21 26 21 25 21 22 28 31 23 17 24 8 3 2 6 5 4 1 7 9 3 2 8 11 9 9 24 26 25 22 24 9
33 31 32 37 38 68 42 48 41 15 6 16 18 22 24 16 25 17 22 26 29 29 13 4 3 1 2 1 4 2 3 9 4 5 10 5 10 5 7 13 25 27 21 9
27 28 34 40 43 65 42 50 40 33 9 13 21 18 17 14 14 17 14 32 23 31 3 3 7 5 4 6 4 5 4 6 10 4 7 12 1 8 8 4 19 9 15 12
21 21 20 32 59 64 48 41 36 30 7 5 24 8 15 21 11 7 9 19 9 23 6 3 4 4 3 7 10 6 4 5 15 6 5 7 6 4 9 11 5 5 24 18
18 20 15 49 57 55 53 40 29 28 9 8 13 14 8 16 21 14 6 11 9 3 7 7 4 4 6 3 4 5 8 8 3 2 1 11 6 5 9 5 1 2 14 21
25 31 37 57 48 48 47 36 26 20 12 8 10 11 6 8 14 18 11 5 5 5 4 3 3 2 3 5 5 3 4 5 6 8 6 2 7 3 6 3 4 5 11 14
27 29 47 56 47 41 37 34 32 22 9 8 5 3 5 8 15 10 14 5 9 10 8 4 3 3 4 5 4 4 2 1 3 3 5 7 7 10 5 8 2 5 7 13
21 31 39 48 42 36 29 31 28 21 9 3 2 5 7 19 15 22 17 7 13 12 12 3 3 3 4 2 2 3 3 8 6 4 3 2 8 14 15 10 7 9 12 18
13 36 47 53 44 37 27 22 27 26 12 3 4 6 7 10 15 24 16 20 11 6 3 2 3 3 4 2 1 3 5 7 6 7 10 9 9 25 20 21 21 20 24 26
10 30 23 43 41 43 32 7 24 29 21 5 2 4 4 4 6 11 18 17 15 3 4 2 3 6 4 4 4 5 21 18 14 5 12 13 4 12 21 23 25 25 25 28
13 14 21 27 34 34 16 8 19 27 17 4 2 1 3 5 9 4 4 7 4 3 4 2 3 2 9 3 4 4 21 26 20 13 17 9 16 14 24 24 25 25 24 27
16 18 24 25 24 20 12 18 30 24 10 5 2 2 2 3 3 2 3 4 4 5 2 1 3 4 1 3 5 6 10 16 16 19 16 13 18 22 27 28 30 29 31 30
33 32 31 28 16 8 10 17 19 15 6 3 2 3 2 4 3 3 4 4 2 3 1 0 1 2 4 5 4 9 11 17 18 23 14 19 27 34 34 34 34 33 33 31
18 21 6 5 9 23 19 6 4 3 2 3 2 2 2 3 1 2 2 1 1 1 0 3 0 3 6 5 7 8 14 16 24 25 16 27 27 34 36 37 25 31 34 32
2 5 5 21 13 5 4 3 3 2 1 4 3 4 3 3 2 2 3 1 2 1 1 2 1 3 4 15 13 13 13 19 26 27 27 29 35 42 40 35 37 36 32 30
6 18 16 6 3 4 3 1 2 2 2 4 2 3 4 4 4 3 2 2 1 3 2 3 3 4 7 14 15 15 19 24 26 25 27 28 33 37 40 40 34 30 28 25
11 6 3 2 2 5 4 4 2 2 3 6 5 3 4 4 3 2 2 2 3 3 1 3 4 3 7 15 17 20 19 21 22 24 25 26 29 35 38 34 29 26 23 19
1 4 2 3 1 3 2 1 3 2 7 12 10 2 3 4 2 3 4 2 3 2 2 5 2 7 13 17 21 25 22 22 21 21 21 23 28 30 30 28 27 25 21 18
2 3 2 2 0 1 1 5 6 5 16 16 6 5 2 1 3 2 4 2 4 5 4 3 3 12 19 23 24 24 23 23 22 21 22 23 28 31 28 25 25 22 21 21
2 3 2 1 2 1 2 8 7 11 17 11 6 2 1 1 2 2 3 4 5 4 3 2 11 20 21 24 25 23 22 20 21 23 27 28 26 25 25 24 22 20 20 20
2 2 4 4 4 2 3 10 10 10 3 2 2 3 1 2 1 2 3 3 2 2 3 10 18 25 28 28 27 25 25 26 26 26 25 24 24 24 25 24 21 19 17 15
Wind_Direction
262 255 252 243 232 229 219 213 222 213 206 203 197 207 198 206 226 219 228 282 228 235 195 205 196 217 205 203 184 195 205 133 178 206 297 217 207 213 203 205 228 239 245 252
265 258 249 241 232 221 212 213 213 204 196 212 198 196 214 220 234 225 227 243 225 223 245 207 215 212 224 191 186 190 182 192 97 320 300 229 209 212 210 219 80 224 207 244
265 256 248 241 232 222 210 211 195 199 198 208 187 193 215 209 221 250 204 247 272 209 214 253 215 222 177 209 195 189 175 190 209 217 235 162 188 202 210 208 227 220 236 250
263 257 252 238 231 218 203 202 194 182 197 193 185 193 217 209 213 215 221 222 248 209 214 191 233 197 147 29 217 180 182 220 213 231 223 199 189 192 200 216 222 210 243 242
268 260 252 241 229 214 200 199 180 180 179 185 188 195 208 207 199 217 219 222 217 234 236 194 264 179 201 176 62 190 190 241 146 215 218 219 235 224 217 219 222 241 250 253
276 258 242 233 226 199 197 201 191 171 172 186 185 196 208 210 205 214 220 219 214 222 222 133 52 208 340 174 154 177 182 129 130 224 168 172 252 228 225 227 228 227 233 244
260 249 241 236 224 201 193 188 175 167 168 187 192 196 199 208 211 225 220 220 204 226 206 160 139 18 45 56 43 59 152 164 122 191 138 216 250 204 223 229 237 233 244 207
252 243 240 230 213 201 195 173 174 159 151 180 202 208 193 198 218 235 238 216 222 210 148 107 187 256 105 231 131 223 98 173 169 190 200 298 263 209 159 189 238 231 234 195
232 237 238 225 204 192 173 172 178 175 144 193 186 190 189 193 209 232 260 246 212 174 125 139 203 182 162 176 187 179 131 212 203 169 202 224 3 191 180 105 264 178 188 178
224 246 244 211 187 179 168 166 174 170 134 139 187 174 195 198 192 222 213 208 252 175 165 170 175 192 194 167 171 152 133 150 210 189 226 280 232 179 142 170 257 216 184 173
204 211 177 160 167 170 165 162 174 170 100 129 180 182 162 194 197 210 186 199 203 283 156 184 179 167 199 138 145 170 161 154 171 148 161 253 154 91 173 220 26 128 191 178
152 164 163 163 152 154 167 166 180 174 164 124 134 165 158 174 200 222 222 269 161 186 128 145 133 140 147 158 193 180 183 175 170 189 206 265 217 194 209 203 183 166 185 195
174 173 167 170 171 171 175 173 172 168 106 90 128 163 259 282 260 256 229 253 231 181 150 125 124 166 152 171 204 86 238 174 151 109 239 230 227 230 210 193 172 182 206 190
181 185 180 180 163 166 172 178 180 174 134 121 153 175 221 257 264 256 243 230 234 175 148 106 150 133 195 177 142 139 175 151 166 254 262 3 257 232 222 212 207 184 169 175
148 173 173 179 177 177 176 168 179 187 180 157 141 154 200 223 245 245 238 240 213 176 125 118 149 127 136 68 86 208 190 171 182 212 179 184 213 221 210 198 189 181 167 153
126 161 162 191 191 192 177 141 186 192 187 140 138 159 164 207 209 232 236 239 216 216 108 135 161 151 132 160 197 222 199 208 208 204 190 197 221 203 201 190 180 172 170 168
155 149 163 153 157 160 162 176 172 172 167 121 27 70 169 159 139 126 102 144 126 126 111 129 135 149 166 161 207 217 205 213 208 185 151 120 164 182 186 182 168 163 158 158
176 163 150 156 168 173 106 132 149 164 149 108 121 286 185 155 87 92 71 62 49 46 82 185 129 130 138 203 220 220 198 198 200 197 200 213 179 169 168 171 164 156 154 153
140 149 155 146 137 116 127 145 159 167 114 122 124 175 199 127 77 90 58 49 59 20 62 306 117 136 212 222 186 205 188 181 191 188 188 168 167 160 161 163 160 149 154 159
117 127 83 77 102 124 131 108 103 99 89 100 123 116 108 112 76 81 130 57 96 175 154 123 147 246 248 227 208 229 211 198 179 143 136 147 147 155 160 165 165 175 168 168
87 65 58 126 116 88 59 78 97 145 57 151 163 164 129 125 145 85 39 66 37 54 222 188 181 267 236 197 201 207 203 198 196 194 183 181 176 173 173 172 175 174 166 166
105 117 108 84 82 72 88 117 163 178 177 133 128 113 112 107 106 103 141 117 126 244 136 69 266 255 229 175 175 169 179 187 184 184 175 177 177 177 175 176 172 169 167 166
82 63 68 62 346 52 135 192 211 160 162 161 148 134 133 116 107 88 111 133 205 107 115 221 225 258 197 165 158 151 166 174 170 171 173 175 175 178 179 169 166 162 160 167
91 125 139 171 224 246 184 186 170 174 133 137 129 119 126 135 129 151 149 143 158 193 228 234 235 200 162 158 147 140 143 152 153 159 166 169 176 172 166 164 164 161 161 168
65 72 159 200 62 92 185 138 119 110 136 122 113 66 85 107 135 186 106 97 213 205 229 235 247 153 151 141 135 133 135 140 145 153 156 159 161 161 161 162 162 168 171 179
65 61 68 65 105 66 102 117 104 120 114 99 75 96 84 110 110 111 211 159 222 234 221 292 134 145 145 141 138 138 136 139 144 147 148 151 155 157 160 164 171 177 186 186
44 49 61 100 89 82 71 116 117 119 108 117 163 108 136 99 139 200 193 208 284 319 71 121 146 148 150 146 138 133 139 140 142 147 151 157 160 161 161 161 159 163 167 176